Wind_Speed
17 17 17 17 16 17 18 18 18 17 17 17 18 18 17 17 18 18 18 18 19 19 20 20 20 19 19 18 18 18 19 19 20 21 21 21 21 21
17 18 18 18 18 18 18 18 18 18 18 18 18 18 18 18 18 18 18 19 20 20 20 21 20 20 20 19 18 19 19 20 21 21 22 21 21 21
18 18 18 19 19 19 19 19 19 19 18 18 19 19 19 19 19 19 20 20 20 21 21 21 20 20 20 20 20 20 20 21 22 22 22 22 22 21
19 19 19 19 19 19 19 19 19 19 19 19 19 19 20 20 20 20 20 20 21 21 21 21 20 20 20 20 21 21 21 21 22 22 22 22 22 22
20 20 20 20 19 19 19 19 19 19 19 19 20 20 20 20 20 21 21 20 21 21 21 21 21 20 21 21 21 20 20 20 21 21 22 22 22 22
20 20 20 19 19 19 18 18 18 19 19 19 20 20 20 20 21 21 21 21 21 22 22 21 21 21 21 21 20 20 20 20 20 21 22 23 23 23
20 20 19 19 19 18 18 17 17 18 18 19 19 19 19 20 20 21 21 21 21 22 21 21 21 21 21 21 21 21 21 21 21 21 22 23 23 23
20 19 19 18 18 17 17 17 17 18 18 18 19 19 19 20 20 21 21 21 20 20 21 21 22 22 22 21 21 22 22 22 22 23 23 24 24 24
19 19 19 18 18 18 18 18 18 18 18 19 20 20 20 21 21 21 21 21 21 21 21 21 22 22 22 22 22 22 23 23 23 24 24 24 25 25
19 19 19 19 19 19 19 19 19 19 20 21 21 21 21 22 22 21 21 21 22 22 22 22 22 23 23 23 23 23 23 24 24 25 25 25 26 27
19 19 19 19 19 19 20 20 20 20 21 21 22 23 23 22 22 23 23 23 23 23 23 23 23 24 24 24 24 24 25 25 26 26 26 26 26 27
19 19 19 19 19 19 20 20 21 21 22 22 23 24 24 23 23 24 24 24 24 24 24 24 24 25 25 25 25 25 26 26 26 26 26 27 27 28
20 20 20 20 20 21 21 22 22 22 22 23 24 24 24 24 24 25 25 25 25 25 25 25 25 25 25 25 25 25 25 26 26 26 27 28 28 28
20 20 21 21 21 21 22 22 23 23 23 23 24 25 24 25 25 25 25 25 25 25 25 25 25 25 25 25 25 25 26 26 26 27 27 28 29 29
21 21 21 22 22 23 23 23 24 25 25 25 25 25 25 25 26 25 25 25 25 25 25 25 25 25 26 26 26 26 26 27 27 27 27 27 28 28
22 22 22 23 24 24 24 24 25 25 25 25 25 25 26 25 25 25 25 25 25 26 26 26 25 25 26 26 26 26 27 27 27 27 27 27 28 28
24 23 24 24 24 25 26 25 26 26 26 26 26 26 26 26 26 26 25 25 26 26 26 26 26 26 26 27 27 27 26 26 26 26 27 28 28 28
26 26 26 25 25 26 26 26 26 27 27 27 27 27 27 27 26 26 26 27 26 27 26 27 27 27 27 27 27 26 26 26 26 26 27 26 27 28
27 28 27 27 27 27 27 27 27 28 28 28 28 28 28 27 27 27 27 28 28 28 28 28 28 27 27 26 26 27 27 27 26 26 26 26 26 26
28 28 28 28 28 28 28 28 28 29 29 29 29 29 28 28 28 28 28 29 29 29 29 29 28 27 27 26 26 27 27 26 26 26 27 27 27 27
28 28 28 29 29 29 29 29 29 29 29 29 29 29 29 29 29 29 29 29 29 29 29 28 27 27 27 27 26 26 27 27 27 27 27 28 28 27
29 29 29 29 29 29 29 29 29 29 30 30 30 30 29 29 29 30 30 30 30 30 29 28 27 28 28 28 27 27 28 28 28 27 27 28 28 27
30 30 30 30 30 30 30 30 30 30 30 30 30 30 30 29 30 30 30 30 30 29 29 29 29 29 29 29 29 29 28 28 28 28 27 28 27 27
Wind_Direction
280 281 283 283 284 284 280 275 270 267 267 269 271 272 272 271 271 271 273 277 280 282 282 283 284 286 284 279 269 265 263 262 261 259 259 259 259 259
282 282 282 282 283 283 282 278 273 269 267 268 270 271 274 276 275 275 277 279 280 282 282 282 283 284 284 281 274 268 266 265 264 262 262 261 259 260
282 283 283 283 281 280 280 279 275 271 270 270 271 271 273 277 277 277 279 279 280 281 282 282 281 281 282 280 276 272 270 267 265 263 263 263 263 262
282 283 284 284 283 280 279 278 275 271 270 271 271 272 275 276 278 278 279 279 281 282 282 282 282 280 281 279 277 274 272 269 266 263 262 263 264 264
283 284 284 283 282 281 279 277 274 270 270 270 270 273 276 277 278 278 279 282 282 281 281 281 281 280 280 280 278 274 271 268 265 263 261 262 263 264
284 286 284 282 282 281 280 278 274 271 269 269 272 274 276 277 278 279 281 283 282 282 282 282 281 281 281 280 278 275 273 271 267 264 262 261 263 263
285 285 283 282 281 281 280 277 274 271 269 270 272 275 276 278 280 282 282 284 283 281 281 281 280 281 281 280 278 276 274 272 269 266 263 263 262 262
284 284 282 281 281 281 280 278 276 273 270 272 275 277 278 279 282 284 285 283 281 279 279 280 281 282 281 281 278 276 275 273 270 268 267 266 264 263
285 284 282 280 279 279 278 278 277 276 275 277 277 279 280 280 284 286 286 285 284 283 282 282 282 282 281 280 278 276 274 272 271 269 267 266 265 264
285 284 282 280 279 278 278 278 278 278 278 278 278 279 280 282 284 284 286 287 286 286 283 282 281 281 280 280 279 278 276 274 272 270 269 268 267 265
282 283 282 280 279 279 277 278 278 278 278 279 280 281 281 282 283 283 285 286 286 285 283 282 281 280 280 280 279 277 276 275 273 271 269 268 266 265
281 282 282 281 279 278 278 278 280 281 280 280 281 283 283 282 283 283 285 286 285 284 282 282 281 281 280 279 278 277 276 275 274 272 269 268 266 265
280 280 281 282 280 279 280 280 281 281 281 281 282 283 282 282 283 284 285 287 286 284 283 283 283 281 281 280 279 278 277 277 275 273 271 270 268 266
280 281 281 282 280 280 281 282 280 280 281 282 283 284 284 284 284 284 286 287 287 286 284 285 284 282 281 281 280 278 277 276 276 275 274 272 270 268
280 281 281 282 282 283 283 281 279 281 282 283 284 284 285 286 285 286 286 286 287 287 287 287 286 285 283 282 281 279 277 277 275 274 273 272 270 269
280 281 282 283 284 284 284 282 280 282 283 284 283 283 285 286 286 286 286 286 287 288 288 288 288 287 286 285 283 281 279 277 275 273 272 272 271 270
279 280 282 283 284 285 284 283 283 282 283 284 283 283 284 286 285 285 286 287 288 288 288 289 289 288 287 286 284 282 280 278 276 273 272 272 272 271
278 280 281 281 283 284 284 284 284 284 283 283 283 283 284 285 285 284 285 287 289 290 289 289 290 289 288 287 286 282 280 278 276 275 275 274 272 271
277 279 280 281 281 282 284 285 285 285 283 282 282 282 283 283 284 285 286 287 288 289 289 289 289 288 288 288 285 283 280 279 277 275 274 274 272 271
277 279 280 281 281 282 283 282 284 284 283 282 281 281 281 282 283 283 285 287 287 288 287 287 287 287 287 286 284 282 280 279 278 277 275 275 273 272
276 278 280 281 281 281 282 282 283 284 283 282 281 281 281 281 283 284 285 285 286 287 287 286 285 284 284 284 284 283 280 279 278 277 276 275 274 272
276 277 279 281 282 282 282 281 282 283 282 281 281 281 281 282 283 283 284 284 285 286 287 286 284 284 285 285 284 283 282 280 278 278 278 277 275 273
276 277 278 280 281 282 282 281 282 282 281 280 281 281 281 281 282 283 284 284 284 285 286 285 284 284 284 284 283 282 282 280 279 278 278 277 276 273
Height
5788 5787 5787 5786 5785 5785 5784 5784 5785 5785 5786 5786 5786 5785 5785 5785 5785 5785 5785 5785 5785 5784 5783 5782 5780 5779 5777 5774 5773 5775 5776 5777 5778 5778 5779 5780 5780 5781
5783 5783 5782 5781 5781 5780 5779 5779 5779 5780 5780 5781 5781 5781 5780 5780 5780 5780 5780 5780 5779 5778 5777 5776 5775 5773 5772 5770 5769 5770 5771 5771 5772 5772 5773 5774 5774 5775
5778 5778 5777 5776 5775 5774 5774 5773 5773 5774 5775 5775 5776 5776 5776 5775 5775 5775 5774 5774 5773 5772 5771 5770 5768 5767 5766 5766 5765 5765 5765 5765 5765 5766 5766 5767 5768 5769
5773 5773 5771 5770 5769 5769 5768 5767 5768 5768 5769 5770 5770 5771 5770 5770 5770 5769 5768 5767 5766 5765 5764 5763 5762 5761 5760 5760 5759 5758 5758 5758 5759 5759 5760 5761 5761 5762
5768 5767 5766 5765 5764 5763 5762 5762 5762 5762 5763 5764 5764 5765 5765 5764 5764 5763 5762 5761 5760 5759 5758 5757 5756 5755 5754 5753 5752 5752 5752 5752 5752 5753 5753 5754 5755 5755
5763 5761 5760 5759 5758 5757 5757 5757 5757 5757 5757 5758 5759 5759 5759 5758 5758 5757 5756 5755 5754 5752 5751 5750 5749 5748 5748 5747 5746 5746 5745 5745 5745 5746 5746 5747 5748 5748
5757 5756 5755 5754 5753 5752 5752 5751 5751 5752 5752 5753 5753 5753 5753 5752 5751 5751 5750 5749 5747 5746 5745 5744 5743 5742 5741 5740 5740 5739 5739 5738 5739 5739 5739 5740 5741 5741
5751 5750 5750 5749 5748 5747 5747 5746 5747 5747 5747 5748 5748 5747 5747 5746 5745 5744 5743 5742 5741 5740 5739 5738 5736 5736 5735 5734 5733 5732 5732 5732 5732 5732 5732 5733 5734 5734
5746 5745 5744 5744 5743 5742 5742 5742 5741 5741 5742 5742 5742 5742 5741 5740 5739 5738 5736 5735 5734 5733 5732 5731 5730 5728 5727 5727 5726 5725 5725 5725 5725 5725 5725 5725 5726 5726
5741 5740 5739 5738 5738 5738 5737 5737 5736 5736 5736 5736 5736 5735 5734 5733 5732 5731 5729 5728 5727 5726 5725 5724 5723 5722 5721 5720 5718 5718 5717 5716 5716 5716 5717 5717 5717 5718
5735 5734 5733 5733 5733 5732 5732 5731 5731 5730 5730 5729 5729 5728 5727 5726 5725 5724 5723 5722 5720 5719 5717 5716 5715 5714 5713 5712 5711 5710 5709 5708 5708 5708 5708 5708 5708 5709
5729 5729 5728 5727 5726 5726 5726 5726 5725 5724 5724 5723 5722 5721 5720 5719 5718 5717 5715 5714 5712 5711 5710 5708 5707 5706 5705 5704 5702 5701 5700 5699 5699 5699 5698 5699 5699 5700
5723 5723 5722 5721 5720 5720 5720 5719 5719 5718 5717 5716 5715 5714 5712 5711 5710 5708 5707 5705 5704 5703 5702 5700 5699 5698 5697 5696 5695 5693 5692 5691 5690 5690 5689 5689 5690 5690
5717 5716 5715 5715 5714 5713 5713 5712 5711 5710 5709 5708 5707 5706 5705 5704 5702 5700 5699 5697 5696 5694 5693 5692 5690 5689 5688 5687 5686 5685 5683 5682 5682 5681 5680 5680 5680 5680
5710 5710 5709 5708 5707 5706 5706 5705 5704 5703 5702 5701 5700 5698 5697 5696 5694 5692 5691 5689 5687 5686 5685 5683 5682 5681 5679 5678 5677 5676 5675 5673 5672 5672 5671 5671 5671 5671
5704 5703 5702 5701 5700 5699 5698 5697 5696 5695 5694 5693 5691 5690 5689 5688 5686 5685 5683 5682 5680 5678 5677 5675 5674 5672 5671 5669 5667 5666 5665 5664 5663 5663 5662 5662 5662 5662
5696 5695 5695 5694 5693 5691 5690 5689 5688 5687 5685 5684 5683 5682 5681 5679 5678 5677 5676 5674 5673 5671 5669 5667 5665 5663 5662 5660 5659 5657 5656 5655 5654 5654 5654 5653 5653 5653
5688 5688 5687 5686 5685 5683 5682 5681 5680 5678 5677 5676 5675 5674 5673 5671 5670 5668 5667 5666 5664 5662 5661 5659 5657 5655 5654 5652 5650 5649 5648 5646 5646 5645 5645 5645 5645 5645
5680 5679 5678 5677 5676 5675 5674 5673 5671 5670 5668 5667 5666 5665 5664 5663 5661 5660 5658 5657 5656 5654 5652 5650 5648 5647 5645 5644 5642 5640 5639 5638 5637 5637 5637 5637 5637 5636
5670 5670 5669 5668 5667 5666 5665 5664 5662 5661 5659 5658 5657 5656 5655 5654 5653 5651 5650 5648 5647 5645 5643 5641 5640 5638 5637 5635 5634 5632 5630 5629 5629 5628 5628 5628 5628 5628
5661 5660 5659 5659 5657 5656 5655 5654 5653 5652 5650 5649 5648 5647 5646 5644 5643 5642 5640 5639 5637 5636 5634 5632 5631 5629 5627 5626 5625 5624 5622 5621 5620 5619 5619 5619 5619 5619
5651 5651 5650 5649 5648 5647 5645 5644 5643 5642 5641 5640 5638 5637 5636 5635 5634 5632 5631 5629 5628 5626 5625 5623 5621 5620 5619 5618 5617 5615 5614 5612 5611 5610 5610 5609 5609 5609
5642 5641 5640 5639 5638 5637 5636 5635 5634 5632 5631 5630 5629 5628 5626 5625 5624 5623 5621 5620 5618 5617 5615 5614 5613 5611 5610 5609 5608 5606 5605 5603 5602 5601 5601 5600 5600 5600